Weather History for Billings, MT

Change the Weather History Date:

Tuesday, March 6, 2012

  Actual Average Record
Temperature  
Mean Temperature 36 °F 35 °F  
Max Temperature 52 °F 46 °F 68 °F (1987)
Min Temperature 20 °F 24 °F -19 °F (1951)
Degree Days  
Heating Degree Days 29 30  
Month to date heating degree days 145 184  
Since 1 July heating degree days 4653 5149  
Cooling Degree Days 0 0  
Month to date cooling degree days 0 0  
Year to date cooling degree days 0 0  
Moisture  
Dew Point 24 °F    
Average Humidity 62    
Maximum Humidity 92    
Minimum Humidity 32    
Precipitation  
Precipitation 0.10 in 0.03 in 0.30 in (1969)
Month to date precipitation 0.10 0.15  
Year to date precipitation 0.95 1.11  
Snow  
Snow 1.20 in 0.30 in 3.60 in (1969)
Month to date snowfall 1.2 1.8  
Since 1 July snowfall 30.0 36.3  
Snow Depth 0.00 in    
Sea Level Pressure  
Sea Level Pressure 29.68 in    
Wind  
Wind Speed 11 mph (NNW)    
Max Wind Speed 25 mph    
Max Gust Speed 30 mph    
Visibility 6 miles    
Events Fog , Snow    
T = Trace of Precipitation, MM = Missing Value Source: NWS Daily Summary

Daily Weather History Graph

Daily Weather History Graph

Search for Another Location

Airport:

Trip Planner

Search our weather history database for the weather conditions in past years. The results will help you decide how hot, cold, wet, or windy it might be!

Date:

Astronomy

Mar. 06, 2012 Rise Set
Actual Time 6:42 AM MST 6:08 PM MST
Civil Twilight 6:12 AM MST 6:38 PM MST
Nautical Twilight 5:38 AM MST 7:12 PM MST
Astronomical Twilight 5:03 AM MST 7:47 PM MST
Moon 4:36 PM MST (3/6) 5:24 AM MST (3/6)
Length of Visible Light 12h 25m
Length of Day
11h 25m
Waxing Gibbous, 96% of the Moon is Illuminated
Mar 6
Waxing Gibbous
Mar 8
Full
Mar 14
Last Quarter
Mar 22
New
Mar 30
First Quarter

Hourly Weather History & Observations

Time (MST) Temp. Windchill Dew Point Humidity Pressure Visibility Wind Dir Wind Speed Gust Speed Precip Events Conditions
12:53 AM 51.1 °F - 24.1 °F 35% 29.39 in 10.0 mi SW 10.4 mph - N/A   Clear
1:53 AM 50.0 °F - 24.1 °F 36% 29.36 in 10.0 mi SW 8.1 mph - N/A   Clear
2:53 AM 48.0 °F - 21.9 °F 36% 29.32 in 10.0 mi WSW 13.8 mph - N/A   Partly Cloudy
3:53 AM 46.9 °F - 21.9 °F 37% 29.32 in 10.0 mi SW 10.4 mph - N/A   Partly Cloudy
4:53 AM 46.0 °F 41.0 °F 23.0 °F 40% 29.33 in 10.0 mi SW 10.4 mph - N/A   Scattered Clouds
5:53 AM 48.0 °F - 25.0 °F 41% 29.34 in 10.0 mi West 5.8 mph - N/A   Scattered Clouds
6:53 AM 37.9 °F 29.2 °F 27.0 °F 65% 29.42 in 10.0 mi NE 15.0 mph - N/A   Scattered Clouds
7:53 AM 37.9 °F 30.5 °F 28.0 °F 68% 29.48 in 10.0 mi North 11.5 mph - N/A   Scattered Clouds
8:53 AM 39.0 °F 30.6 °F 30.0 °F 70% 29.53 in 10.0 mi NW 15.0 mph - N/A   Overcast
9:24 AM 37.4 °F 28.2 °F 30.2 °F 75% 29.52 in 10.0 mi NW 16.1 mph 28.8 mph N/A   Overcast
9:48 AM 35.6 °F 24.8 °F 30.2 °F 81% 29.53 in 10.0 mi NNW 19.6 mph - 0.00 in Snow Light Snow
9:53 AM 36.0 °F 25.0 °F 30.0 °F 79% 29.56 in 10.0 mi NNW 20.7 mph - 0.00 in Snow Light Snow
10:53 AM 34.0 °F 23.8 °F 28.9 °F 82% 29.60 in 5.0 mi NNW 16.1 mph 24.2 mph 0.02 in Snow Light Snow
11:15 AM 33.8 °F 23.5 °F 28.4 °F 81% 29.59 in 1.5 mi North 16.1 mph - 0.00 in Snow Light Snow
11:53 AM 30.9 °F 17.8 °F 27.0 °F 85% 29.64 in 1.5 mi NNW 23.0 mph 29.9 mph 0.02 in Snow Light Snow
12:23 PM 30.2 °F 17.4 °F 26.6 °F 86% 29.62 in 2.0 mi NNW 20.7 mph 25.3 mph 0.00 in Snow Light Snow
12:53 PM 30.9 °F 19.4 °F 26.1 °F 82% 29.66 in 2.5 mi NNW 17.3 mph - 0.00 in Snow Light Snow
1:04 PM 30.2 °F 18.1 °F 24.8 °F 80% 29.64 in 1.0 mi NNW 18.4 mph 24.2 mph N/A Snow Light Snow
1:45 PM 30.2 °F 19.8 °F 26.6 °F 86% 29.65 in 2.0 mi NNW 13.8 mph - 0.00 in Snow Light Snow
1:53 PM 30.0 °F 19.1 °F 26.1 °F 85% 29.69 in 2.0 mi NNW 15.0 mph - 0.00 in Snow Light Snow
2:02 PM 30.2 °F 19.8 °F 26.6 °F 86% 29.65 in 1.5 mi NNW 13.8 mph - 0.00 in Snow Light Snow
2:05 PM 30.2 °F 20.2 °F 26.6 °F 86% 29.66 in 1.0 mi NNW 12.7 mph - 0.00 in Snow Light Snow
2:42 PM 30.2 °F 19.8 °F 24.8 °F 80% 29.68 in 2.0 mi NNW 13.8 mph - 0.00 in Snow Light Snow
2:53 PM 30.0 °F 23.2 °F 26.1 °F 85% 29.73 in 1.0 mi East 6.9 mph - 0.00 in Snow Light Snow
2:59 PM 28.4 °F 19.7 °F 26.6 °F 93% 29.69 in 0.2 mi ENE 9.2 mph - 0.01 in Fog , Snow Snow
3:06 PM 28.4 °F 19.1 °F 26.6 °F 93% 29.69 in 0.2 mi NNE 10.4 mph - 0.02 in Fog , Snow Snow
3:13 PM 28.4 °F 20.4 °F 26.6 °F 93% 29.70 in 0.2 mi NNE 8.1 mph - 0.03 in Fog , Snow Heavy Snow
3:27 PM 28.4 °F 18.5 °F 26.6 °F 93% 29.71 in 0.5 mi North 11.5 mph - 0.04 in Fog , Snow Snow
3:51 PM 28.4 °F 20.4 °F 26.6 °F 93% 29.73 in 1.0 mi NNE 8.1 mph - 0.05 in Snow Light Snow
3:53 PM 28.0 °F 20.0 °F 26.1 °F 92% 29.78 in 1.0 mi North 8.1 mph - 0.05 in Snow Light Snow
4:20 PM 28.4 °F 19.1 °F 24.8 °F 86% 29.75 in 9.0 mi NNE 10.4 mph - 0.01 in   Overcast
4:53 PM 28.9 °F 22.8 °F 25.0 °F 85% 29.83 in 8.0 mi North 5.8 mph - 0.01 in Snow Light Snow
5:16 PM 28.4 °F 20.4 °F 21.2 °F 74% 29.79 in 1.0 mi North 8.1 mph - 0.00 in Snow Light Snow
5:29 PM 28.4 °F 23.3 °F 21.2 °F 74% 29.81 in 6.0 mi North 4.6 mph - 0.00 in Snow Light Snow
5:36 PM 28.4 °F 19.7 °F 21.2 °F 74% 29.81 in 9.0 mi NNE 9.2 mph - 0.00 in Snow Light Snow
5:53 PM 28.0 °F 20.8 °F 21.9 °F 78% 29.88 in 7.0 mi NNE 6.9 mph - 0.00 in Snow Light Snow
6:53 PM 26.6 °F 20.0 °F 19.4 °F 74% 29.86 in 10.0 mi NNE 5.8 mph - N/A   Overcast
7:35 PM 26.6 °F 17.5 °F 19.4 °F 74% 29.88 in 10.0 mi North 9.2 mph - N/A   Overcast
7:53 PM 26.1 °F 19.4 °F 17.1 °F 69% 29.98 in 10.0 mi North 5.8 mph - N/A   Overcast
8:12 PM 26.6 °F 21.2 °F 17.6 °F 69% 29.89 in 10.0 mi North 4.6 mph - N/A   Overcast
8:53 PM 25.0 °F 14.2 °F 14.0 °F 63% 29.98 in 10.0 mi NNW 11.5 mph - N/A   Scattered Clouds
9:53 PM 24.1 °F 16.0 °F 12.9 °F 62% 30.00 in 10.0 mi North 6.9 mph - N/A   Scattered Clouds
10:53 PM 21.9 °F 11.7 °F 12.9 °F 68% 30.03 in 10.0 mi NNW 9.2 mph - N/A   Scattered Clouds
11:53 PM 21.0 °F 12.4 °F 12.0 °F 68% 30.05 in 10.0 mi WNW 6.9 mph - N/A   Partly Cloudy